Regional Weather Roundup
Issued by NWS

Home | Current Version | Previous Version | Text Only | Print | Product List | Glossary On
Versions: 1 2 3 4 5 6 7 8 9 10 11 12 13 14 15 16 17 18 19 20 21 22 23 24 25 26 27 28 29 30 31 32 33 34 35 36 37 38 39 40 41 42 43 44 45 46 47 48 49 50
000
ASUS46 KPQR 271010
RWROR

OREGON REGIONAL WEATHER ROUNDUP
NATIONAL WEATHER SERVICE PORTLAND OR
300 AM PDT THU APR 27 2017

NOTE: "FAIR" INDICATES FEW OR NO CLOUDS BELOW 12,000 FEET WITH
NO SIGNIFICANT WEATHER AND/OR OBSTRUCTIONS TO VISIBILITY.

ORZ001>013-271100-
NORTHWEST OREGON


CITY           SKY/WX    TMP DP  RH WIND       PRES   REMARKS
ASTORIA        PTCLDY    44  39  82 W6        30.10S
NEWPORT        CLOUDY    46  43  87 W3        30.19S
PORTLAND       MOCLDY    44  39  82 W6        30.13R
VANCOUVER WA   CLOUDY    45  41  86 CALM      30.12S
SCAPPOOSE      MOCLDY    37  36  96 N5        30.12R WCI  33
HILLSBORO      LGT RAIN  40  39  97 CALM      30.12S
AURORA         MOCLDY    43  39  86 S6        30.15R
MCMINNVILLE    CLOUDY    44  40  85 SW5       30.14S
SALEM          CLOUDY    42  39  89 SW6       30.14S
CORVALLIS      MOCLDY    43  39  87 CALM      30.16S
EUGENE         CLOUDY    44  43  96 S5        30.18R
$$

ORZ021-028-271100-
SOUTHWEST OREGON


CITY           SKY/WX    TMP DP  RH WIND       PRES   REMARKS
NORTH BEND     PTCLDY    45  45 100 SE6       30.21S
BROOKINGS      PTCLDY    42  41  96 CALM      30.18F
ROSEBURG       PTCLDY    42  40  92 CALM      30.19R
SEXTON SUMMIT  MOCLDY    31  30  96 NW7       30.09F WCI  24
MEDFORD        MOCLDY    43  38  82 CALM      30.15S
$$

ORZ014>016-041-271100-
COLUMBIA GORGE


CITY           SKY/WX    TMP DP  RH WIND       PRES   REMARKS
TROUTDALE      CLOUDY    46  41  82 W3        30.12R
HOOD RIVER     RAIN      43  36  75 NW12G17   30.04S
THE DALLES     PTCLDY    47  35  63 W14G26    30.02R
$$

ORZ029>031-041-044-049-050-061>064-502-503-505>511-271100-
EASTERN OREGON


CITY           SKY/WX    TMP DP  RH WIND       PRES   REMARKS
REDMOND        PTCLDY    37  23  56 NW10      30.01R WCI  30
BEND           PTCLDY    34  25  69 CALM      30.00S
PRINEVILLE     CLEAR     36  25  64 W15G23    29.99R WCI  26
KLAMATH FALLS  PTCLDY    34  26  72 W7        30.03R WCI  28
LAKEVIEW       PTCLDY    32  27  80 SW3       30.00S
HERMISTON      CLEAR     44  35  70 W22G31    29.94R
PENDLETON      LGT RAIN  41  33  73 W26G38    29.93R
JOHN DAY       MOCLDY    35  32  90 W8        29.95R WCI  28
MEACHAM        CLOUDY    34  27  75 MISG      29.90R
LA GRANDE      CLOUDY    39  34  81 NW6       29.91R WCI  35
BAKER CITY     PTCLDY    37  29  72 NW10      29.89R WCI  30
BURNS          CLEAR     30  27  88 SW7       29.94R WCI  23
ROME             N/A     39  26  59 NW7       29.90R WCI  34
ONTARIO        CLEAR     40  34  79 NW8       29.91S WCI  34
$$



USA.gov is the U.S. government's official web portal to all federal, state and local government web resources and services.